Location: Unspecified
(0.0000°N, 0.0000°E)
Time: 00:04:28
(UTC+00:00)

CAPRICORN - Pass Details

Date: 27 May 2026
Orbit: 325 x 40040 km, 64.5° (Epoch: 16 April)

Event Time Altitude Azimuth Distance (km) Brightness Sun altitude
Rises 19:51:50 0° 110° (ESE) 42,822 ? -26.6°
Reaches altitude 10° 20:41:10 10° 105° (ESE) 43,918 ? -37.7°
Maximum altitude 01:08:33 60° 49° (NE) 29,447 ? -62.5°
Drops below altitude 10° 03:01:06 10° 16° (NNE) 12,977 ? -40.3°
Sets 03:07:43 0° 18° (NNE) 12,190 ? -38.9°
